User: anonymous   Login
Location: Unspecified
(0.0000°N, 0.0000°E)
Time: 12:27:32
(UTC+02:00)
Language:

Iridium 4 Rocket - Orbit

View from above orbital plane
View from above orbital plane
View from above satellite
View from above satellite

Ground track
Ground track

The orbit data is extracted from the following two-line orbital elements,

1 24797U 97020F   16125.19633630  .00000233  00000-0  45590-4 0  9998
2 24797  86.8947 143.1734 0223744 240.5753 167.2451 14.43857947998930
Epoch (UTC): 04 May 2016 04:42:43
Eccentricity: 0.0223744
inclination: 86.8947°
perigee height: 586 km
apogee height: 905 km
right ascension of ascending node: 143.1734°
argument of perigee: 240.5753°
revolutions per day: 14.43857947
mean anomaly at epoch: 167.2451°
orbit number at epoch: 99893

The dashed part of the orbit path shows where the satellite is in the earth's shadow,  

DLR